This is the latest recevied weather packets stored in our database for station/object SP6PGH-13. If no packets are shown the sender has not sent any weather packets the latest 10 day(s).
| Time | Temp. | Humidity | Pressure | Rain* | Wind** | Luminosity | Snow |
|---|---|---|---|---|---|---|---|
| 1776998744 | 4.44° C | 87% | 1002.5 hPa | - | - | - | - |
| 1776997843 | 4.44° C | 84% | 1002.6 hPa | - | - | - | - |
| 1776996942 | 4.44° C | 84% | 1002.6 hPa | - | - | - | - |
| 1776996042 | 4.44° C | 84% | 1002.7 hPa | - | - | - | - |
| 1776995140 | 5° C | 83% | 1002.7 hPa | - | - | - | - |
| 1776994239 | 5° C | 83% | 1002.7 hPa | - | - | - | - |
| 1776993338 | 5° C | 82% | 1002.8 hPa | - | - | - | - |
| 1776992438 | 5° C | 81% | 1002.9 hPa | - | - | - | - |
| 1776991537 | 5.56° C | 80% | 1002.8 hPa | - | - | - | - |
| 1776990635 | 5.56° C | 80% | 1002.8 hPa | - | - | - | - |
| 1776989734 | 6.11° C | 79% | 1002.9 hPa | - | - | - | - |
| 1776988833 | 6.67° C | 78% | 1003.2 hPa | - | - | - | - |
| 1776987932 | 6.67° C | 78% | 1003.2 hPa | - | - | - | - |
| 1776987031 | 7.22° C | 77% | 1003.4 hPa | - | - | - | - |
| 1776986130 | 7.22° C | 76% | 1003.4 hPa | - | - | - | - |
| 1776985229 | 7.78° C | 74% | 1003.5 hPa | - | - | - | - |
| 1776984328 | 8.33° C | 74% | 1003.6 hPa | - | - | - | - |
| 1776983427 | 8.33° C | 72% | 1003.7 hPa | - | - | - | - |
| 1776982527 | 8.89° C | 71% | 1003.7 hPa | - | - | - | - |
| 1776981626 | 10° C | 69% | 1003.8 hPa | - | - | - | - |
| 1776980725 | 10° C | 69% | 1003.9 hPa | - | - | - | - |
| 1776979823 | 11.11° C | 66% | 1003.9 hPa | - | - | - | - |
| 1776978922 | 11.11° C | 66% | 1003.8 hPa | - | - | - | - |
| 1776978021 | 11.11° C | 66% | 1003.9 hPa | - | - | - | - |
| 1776977120 | 10.56° C | 67% | 1003.9 hPa | - | - | - | - |
* Rain since midnight (hover to see other rain measurements)
** Current wind speed in m/s (hover to see current wind gust speed)